Tracking 30990 objects as of 8-Jul-2025
HD Live streaming from Space Station
objects crossing your sky now

SITRO-AIS-28

Track SITRO-AIS-28 now!
10-day predictions
SITRO-AIS-28 is classified as:


NORAD ID: 59071
Int'l Code: 2024-039U
Perigee: 497.0 km
Apogee: 715.6 km
Inclination: 95.4 °
Period: 96.7 minutes
Semi major axis: 6977 km
RCS: Unknown
Launch date: February 29, 2024
Source: (TBD)
Launch site: VOSTOCHNY COSMODROME (VOSTO)

Uplink (MHz):
Downlink (MHz): 401.350
Beacon (MHz):
Mode: 2k4 GMSK_USP
Call sign:
Status: Unknown

Your satellite tracking list
Your tracking list is empty




NASA's NSSDC Master Catalog

Two Line Element Set (TLE):
1 59071U 24039U   25189.55553577  .00003955  00000-0  33105-3 0  9994
2 59071  95.3764 359.8427 0156625  85.8789 276.0318 14.89603012 73513
Source of the keplerian elements: AFSPC